Wind_Speed
21 24 26 28 27 30 34 32 29 26 23 25 26 22 18 17 18 20 20 18 18 17 18 18 19 19 19 18 18 18 18 17 15 14 14 13 13 13 13 12 11 11 12 12 12 12 12 11 11 11 11 12 12 12 11 11 10 9 8 8 7 8 10 10 8 7 7 7 6 6 6 6 6 6 8 9 9 10 11 11 11 11 11 11 10
19 20 21 24 24 22 24 26 25 23 24 27 23 17 17 19 18 20 20 19 19 19 20 19 19 19 20 19 19 18 17 16 14 14 14 14 14 14 13 12 12 12 12 12 12 13 12 11 10 10 10 11 11 11 10 10 9 8 8 8 8 9 11 10 8 7 7 7 7 7 7 7 8 8 8 9 10 11 12 12 12 12 12 10 9
16 15 16 19 20 14 12 17 21 23 24 25 20 16 19 20 19 21 21 21 21 22 21 20 19 19 20 20 19 18 16 15 15 14 14 14 15 14 13 12 12 12 12 12 13 12 11 11 10 10 10 11 10 10 9 9 8 7 7 8 8 9 10 10 9 8 8 8 8 8 8 9 9 10 10 11 12 12 12 13 12 12 11 10 9
14 13 13 11 10 9 11 16 19 21 22 21 18 18 20 19 20 22 23 23 23 23 22 21 19 18 20 20 19 17 16 15 14 14 14 15 15 14 13 12 11 12 12 13 13 12 11 10 10 10 10 10 10 9 9 9 7 6 7 7 7 8 9 9 10 10 10 10 9 9 9 9 9 10 10 11 12 12 11 11 10 10 9 9 9
14 13 14 11 6 8 13 17 18 19 18 17 18 19 19 20 21 22 23 24 24 23 23 22 20 20 20 20 19 17 15 14 14 14 14 14 14 14 14 13 12 12 12 13 12 11 10 9 9 9 10 9 9 8 8 7 6 5 6 7 7 8 8 9 9 10 10 10 9 8 7 6 6 6 6 6 6 6 7 7 7 7 8 9 9
16 15 15 13 10 11 15 17 17 16 16 16 17 18 18 20 22 23 24 24 25 25 24 23 22 21 20 20 18 16 15 15 15 15 15 14 13 14 14 13 12 12 13 13 12 12 11 9 9 9 9 9 8 7 6 6 6 5 6 7 7 6 6 6 7 7 8 8 7 6 5 5 5 4 3 3 3 4 5 5 6 7 8 9 10
15 15 14 14 14 15 18 18 16 16 17 17 17 16 18 21 23 24 25 25 26 26 26 24 23 23 21 20 18 17 17 17 17 17 15 14 13 13 13 12 12 12 13 13 12 12 11 10 9 9 9 8 7 6 6 6 7 6 6 6 6 5 6 6 5 5 5 5 5 5 5 5 5 4 4 3 3 5 6 5 5 7 8 9 10
14 14 14 15 15 17 19 19 18 18 18 17 17 17 18 21 24 24 24 25 25 26 27 26 26 26 24 20 19 18 18 19 18 17 15 13 13 12 11 10 10 11 12 12 12 11 11 10 9 8 8 8 8 7 7 8 8 7 7 7 6 6 7 7 7 6 5 5 6 7 6 6 6 6 6 6 6 8 9 7 7 9 10 11 11
13 14 15 15 15 16 18 18 18 19 18 17 17 17 18 21 23 23 23 24 24 25 28 27 27 29 25 21 19 19 19 19 18 16 15 14 13 11 9 8 9 10 10 10 10 11 11 11 10 9 9 9 8 8 8 9 9 9 9 8 8 8 8 8 8 7 7 7 8 9 9 8 9 9 9 9 9 11 12 11 11 12 13 13 13
13 14 13 12 13 14 16 15 15 17 16 16 18 18 17 20 22 22 23 24 24 25 27 27 28 29 25 21 20 20 21 20 19 17 16 15 12 10 9 9 9 9 9 10 10 11 11 11 10 10 10 9 9 9 9 9 10 10 10 9 9 9 9 9 8 8 8 8 9 10 11 11 12 13 12 12 13 13 14 14 15 15 16 16 15
12 11 10 9 9 10 12 12 12 13 14 15 17 17 17 18 20 21 23 24 24 26 27 28 30 28 24 22 22 22 22 20 19 18 17 15 12 10 10 9 9 10 11 11 11 11 11 11 11 11 10 10 10 10 10 10 10 10 10 10 10 10 11 10 10 10 10 11 11 12 13 13 15 16 15 15 15 15 16 17 17 18 18 19 18
10 10 10 9 9 8 8 9 9 10 11 13 15 16 17 18 18 20 23 24 24 26 28 29 29 26 23 23 23 23 23 22 20 19 17 15 13 12 12 11 11 12 12 13 12 12 12 12 11 11 11 11 11 11 11 11 11 11 11 11 11 12 12 12 12 12 13 13 14 14 15 15 17 18 18 18 18 18 18 19 19 20 20 21 21
9 9 9 8 9 8 5 6 8 7 9 12 14 15 16 17 17 18 21 23 25 27 27 27 26 24 23 24 24 25 24 23 21 20 18 16 15 14 14 14 14 14 14 14 13 13 13 13 12 11 11 11 11 11 11 10 10 11 11 11 12 12 13 13 14 14 15 16 16 16 17 17 18 19 19 20 20 21 21 21 22 23 23 24 24
8 8 8 8 8 7 5 6 8 8 10 11 11 13 14 16 17 18 21 25 25 25 25 25 24 23 23 24 25 26 25 22 21 20 18 16 16 16 16 16 17 16 16 15 14 14 13 12 11 11 11 11 11 11 10 10 9 9 10 11 12 13 13 14 15 16 17 18 19 19 19 20 21 21 21 22 22 22 22 23 24 24 24 24 25
7 7 7 6 7 7 6 5 7 7 10 12 12 13 14 15 18 20 23 26 26 24 24 24 23 23 24 24 25 26 24 22 21 20 19 18 18 18 18 18 18 18 17 16 14 13 12 12 11 11 11 12 12 12 11 10 10 9 10 11 12 13 14 14 15 16 18 19 20 21 22 23 23 24 24 24 24 24 24 24 25 25 26 26 27
6 6 5 5 6 7 6 5 6 6 8 12 13 13 15 17 20 22 25 25 25 24 23 23 22 22 23 23 24 25 24 23 22 21 20 19 18 18 18 19 19 18 17 16 15 14 14 13 12 11 12 12 13 14 14 14 13 13 14 14 15 16 16 16 17 18 19 20 21 22 23 24 24 25 26 26 25 25 26 26 27 28 29 30 31
5 5 6 6 6 6 6 5 5 7 6 8 10 10 13 17 20 21 22 22 23 23 22 21 22 22 21 21 22 23 23 24 23 22 20 19 18 18 18 19 19 19 18 18 17 17 16 16 15 14 14 14 15 16 16 17 17 18 18 19 20 20 20 20 20 20 21 21 22 23 23 24 25 25 26 26 25 25 26 27 28 30 31 31 32
7 7 7 8 7 6 5 3 4 8 7 3 9 11 13 14 17 21 21 19 20 21 20 20 21 20 20 21 22 23 24 24 23 22 21 20 18 18 19 19 20 20 19 19 18 18 19 18 16 16 16 16 17 18 19 20 21 21 22 23 24 24 24 23 23 22 22 22 22 22 22 23 23 24 24 25 25 26 26 28 29 30 31 33 34
9 8 8 8 8 6 4 3 3 6 9 6 5 12 16 17 19 21 22 21 20 20 19 20 21 20 21 21 22 23 23 23 22 21 20 20 18 17 18 19 21 21 21 21 20 20 20 19 17 17 18 18 20 21 22 24 25 25 25 25 26 27 27 26 25 24 22 21 21 21 22 23 24 24 25 26 27 28 29 30 31 32 33 35 36
7 7 6 7 8 7 6 5 5 4 5 6 5 6 13 17 20 21 21 21 22 20 19 21 22 22 22 22 22 22 21 21 20 20 19 18 17 17 18 20 21 21 20 22 23 22 20 19 19 19 20 21 22 24 25 27 28 28 28 29 30 30 28 25 24 22 21 21 21 22 24 25 26 27 27 28 29 30 31 32 33 34 35 36 37
6 5 4 6 8 9 9 9 8 6 5 4 6 7 8 10 16 20 20 20 23 23 22 22 22 22 23 23 22 20 20 21 22 22 21 20 18 18 19 21 20 18 17 19 21 20 19 18 18 19 21 22 24 26 27 28 28 29 30 30 28 24 21 20 20 20 20 21 23 24 25 27 28 29 29 30 30 31 32 32 33 34 35 36 37
7 8 6 4 7 9 9 10 10 9 8 5 4 7 9 8 10 16 18 21 25 26 23 22 23 24 25 24 23 22 21 23 25 26 27 25 23 22 22 21 21 21 20 20 21 20 20 20 20 22 23 24 26 28 30 31 32 31 29 25 19 16 16 17 19 20 22 23 25 26 27 28 28 29 29 29 29 29 30 31 31 32 33 34 35
9 12 8 5 5 6 7 8 9 7 6 4 4 8 8 7 8 11 15 19 22 23 23 23 24 26 28 28 27 26 25 24 26 27 27 25 23 23 23 23 23 23 22 21 21 22 22 23 23 24 25 26 28 29 29 29 28 25 20 17 16 17 18 19 21 23 25 26 27 28 28 27 27 27 27 27 28 28 29 30 30 31 32 33 34
10 12 10 6 5 5 5 6 7 6 5 4 5 8 10 10 9 10 11 13 18 21 23 25 25 27 29 29 26 25 25 25 26 28 27 25 23 23 23 23 23 23 22 22 23 23 23 24 25 26 26 25 23 21 18 16 15 14 15 16 18 20 21 22 24 25 26 26 26 26 25 25 25 25 25 26 27 27 28 29 30 31 32 33 34
9 9 11 8 5 4 5 8 9 9 7 5 3 4 5 6 7 8 7 10 18 22 24 25 26 26 26 24 22 23 24 27 28 27 27 26 26 25 25 24 24 24 25 25 26 26 27 27 27 25 21 17 15 14 14 15 15 16 18 20 21 22 23 24 25 25 24 24 23 23 23 23 24 25 25 26 26 27 27 28 29 31 32 34 35
9 10 13 11 6 4 6 9 12 12 8 4 3 3 3 3 4 4 4 7 12 16 18 21 25 27 26 22 20 20 22 24 26 27 26 26 26 27 28 27 27 27 27 27 26 26 25 23 21 17 15 14 15 17 18 18 19 19 20 21 22 23 23 23 23 22 21 21 21 21 22 23 23 24 25 25 26 26 27 29 30 32 34 36 37
10 12 15 13 8 5 5 8 11 11 7 7 7 7 5 3 3 5 5 5 8 11 12 13 17 21 22 20 18 17 18 20 22 23 24 23 22 21 22 22 21 20 19 19 18 17 16 15 15 15 16 18 19 19 20 20 20 21 21 22 22 22 21 21 20 20 20 20 21 22 22 23 23 23 24 25 26 28 29 31 32 34 35 36 37
12 14 15 13 9 6 5 7 10 10 8 8 9 10 9 9 7 7 7 6 8 9 9 10 12 13 14 15 15 15 16 16 15 14 14 13 12 12 13 13 12 12 11 12 12 12 13 15 16 18 19 20 21 21 21 21 21 21 21 21 21 20 20 20 19 19 20 20 21 22 22 22 23 23 25 26 28 29 31 32 33 33 33 34 34
13 13 13 12 9 8 8 9 9 8 8 8 8 9 9 10 10 11 14 15 12 10 9 9 11 11 11 12 12 12 11 11 11 10 10 10 11 12 12 12 12 12 13 13 14 15 16 18 19 20 21 22 22 22 21 20 20 20 20 20 20 20 20 19 19 19 20 21 21 21 21 22 23 24 26 27 28 29 30 30 30 30 30 30 29
9 9 9 8 7 7 8 10 11 11 9 7 6 6 8 9 10 13 16 17 15 13 12 10 10 10 11 11 12 12 12 13 13 13 13 14 14 15 15 15 14 14 15 16 17 18 18 19 20 22 23 23 22 21 21 20 20 19 19 19 19 19 19 19 19 19 20 20 20 20 21 22 24 25 26 27 28 28 28 28 28 27 26 25 24
8 8 8 7 6 6 7 8 10 12 12 11 10 9 8 8 10 12 15 15 15 15 15 15 14 14 15 15 15 15 16 17 18 17 17 17 17 16 15 14 13 14 16 17 18 18 19 20 21 22 22 22 21 20 20 19 19 19 19 19 19 18 18 18 18 19 19 19 20 21 22 24 25 26 27 27 27 26 26 25 24 23 22 21 20
8 8 8 8 7 7 8 8 9 11 12 12 12 13 13 13 12 11 11 12 12 13 15 16 17 18 18 18 19 19 19 19 19 18 17 16 15 13 13 13 13 15 16 17 17 18 19 20 21 21 21 20 20 20 19 19 19 19 19 18 18 17 17 17 17 17 18 19 21 22 24 25 26 26 25 25 24 24 23 23 22 21 20 18 18
8 8 8 9 9 9 9 10 10 11 13 13 13 13 13 15 15 15 14 13 11 11 12 13 14 16 17 18 18 18 18 18 17 15 14 12 11 11 12 13 14 15 16 17 18 19 20 21 21 20 20 19 19 19 19 19 19 18 18 17 17 16 16 15 16 17 18 20 21 23 24 25 24 23 22 22 22 22 22 21 20 19 18 17 16
9 9 9 9 10 10 10 10 11 11 12 13 13 13 13 13 14 14 14 13 13 13 13 13 13 13 13 14 14 14 13 13 12 11 10 9 10 11 12 13 14 16 16 18 19 20 20 20 20 20 19 19 18 18 18 18 18 17 16 15 15 14 14 14 16 17 19 21 23 23 23 22 21 21 21 21 21 21 20 19 18 17 16 16 16
8 8 9 9 9 10 10 11 11 11 12 13 13 14 14 15 15 15 15 15 14 14 14 14 13 13 12 12 12 11 11 10 10 10 10 11 12 13 14 15 16 17 18 19 20 20 20 20 20 20 19 19 18 18 18 17 16 15 14 14 13 13 13 14 16 18 20 21 22 21 19 19 19 20 20 20 20 19 18 17 16 16 16 16 16
7 7 7 8 8 9 9 10 10 10 10 11 12 12 13 14 15 15 16 16 16 16 16 16 16 15 15 14 14 13 13 13 12 12 12 13 14 15 16 16 17 17 18 19 19 20 20 20 20 20 19 19 18 17 16 15 14 13 13 12 12 12 14 15 17 19 19 19 19 18 17 18 18 19 19 19 19 18 17 16 15 15 15 16 17
6 6 6 6 7 7 8 8 8 9 9 9 10 11 11 12 13 14 14 14 15 15 15 15 15 15 15 15 14 14 13 14 14 14 14 14 14 15 16 17 17 18 19 19 19 20 20 20 20 19 19 17 16 15 14 13 12 11 11 11 12 13 15 16 17 17 17 17 17 17 17 17 18 18 18 18 17 16 15 14 14 14 15 16 17
6 6 6 6 7 7 7 7 7 8 8 9 10 11 11 12 13 13 13 13 13 13 13 13 13 13 13 12 12 12 12 12 13 14 15 15 15 16 16 17 18 18 19 19 20 20 20 19 19 18 17 16 15 14 13 11 10 10 10 10 12 13 14 14 15 15 16 17 17 17 17 17 17 17 17 16 15 14 14 13 14 14 15 16 17
8 7 7 7 7 7 7 7 8 8 8 9 9 10 10 11 12 13 13 13 12 12 11 11 11 11 10 10 10 11 11 12 13 14 15 15 16 16 17 17 18 18 19 19 19 19 19 18 17 16 16 14 13 12 11 9 8 9 9 11 11 12 12 13 14 14 15 16 16 16 16 16 16 16 15 14 14 13 13 13 14 15 16 16 17
8 8 8 8 8 9 9 9 9 10 10 10 10 10 10 10 11 12 13 13 12 11 10 10 9 9 8 9 9 10 11 12 13 13 13 14 15 15 16 17 17 17 17 17 17 17 17 16 15 15 13 12 11 9 8 7 8 8 9 9 10 11 11 12 12 13 13 14 14 14 15 15 14 14 13 12 12 12 12 13 14 15 15 16 16
8 9 9 10 10 10 11 11 12 12 12 12 12 11 11 10 11 11 12 12 12 11 10 10 9 9 9 10 10 10 11 12 13 13 12 13 13 14 14 15 15 15 15 15 15 15 14 14 13 12 11 9 8 7 6 6 7 7 7 7 8 9 10 10 11 11 11 11 11 12 12 12 12 12 11 11 11 11 12 12 13 14 14 14 13
8 9 9 10 11 11 12 12 12 13 13 13 13 12 12 11 10 10 10 11 11 10 10 10 10 10 10 11 11 12 12 12 13 13 13 13 12 13 13 13 13 13 13 13 13 12 11 11 10 9 9 7 6 5 5 5 5 5 5 6 6 7 8 8 9 9 9 9 9 9 9 9 10 10 11 11 11 11 11 11 11 11 11 11 12
9 9 10 10 11 12 12 12 13 13 13 12 12 12 11 11 11 10 10 11 11 11 10 10 11 11 12 12 13 13 13 13 14 14 14 13 13 12 12 12 12 12 12 12 11 10 10 9 9 8 7 6 5 4 4 4 3 4 4 4 5 5 6 6 7 7 8 8 8 8 8 8 9 9 9 9 9 9 9 9 9 9 10 11 11
10 10 10 11 11 12 12 13 13 13 13 13 12 11 11 12 12 12 12 12 12 12 12 12 11 11 12 12 13 13 13 14 14 14 14 15 14 13 12 12 11 11 11 11 10 9 9 8 8 7 7 6 5 4 3 3 2 2 2 3 3 4 5 6 6 7 7 7 7 7 7 7 7 7 7 7 6 7 7 8 9 9 10 11 12
10 10 10 11 11 12 12 12 13 13 13 13 13 12 12 12 12 13 13 13 14 14 14 14 14 13 13 12 12 13 13 13 14 14 15 15 15 14 12 12 11 11 11 10 9 9 9 8 8 8 7 6 5 4 4 3 3 2 2 2 3 4 4 5 6 6 6 6 6 7 6 6 5 5 5 5 5 6 7 8 9 10 10 11 11
9 9 10 10 11 11 11 11 12 12 13 13 13 13 13 13 13 13 14 15 15 16 16 16 17 16 16 15 14 13 13 13 13 14 14 15 15 14 13 12 11 11 10 10 9 9 8 8 8 8 7 6 5 4 4 4 3 2 2 2 2 3 4 4 5 5 5 6 6 5 5 4 4 4 5 5 6 7 8 9 9 10 10 11 12
9 9 9 9 9 9 10 11 11 12 13 13 14 14 14 14 14 14 14 14 15 16 17 17 18 18 18 18 17 16 15 14 14 14 14 14 14 14 13 12 11 11 10 10 9 9 9 9 8 7 6 5 5 5 4 4 3 2 2 1 2 2 2 3 4 4 5 5 5 4 4 4 4 5 5 6 7 8 8 9 9 9 10 11 13
8 8 8 8 8 9 9 10 11 12 12 13 14 14 15 15 16 16 15 15 15 15 16 17 18 19 20 19 19 18 16 15 14 15 15 15 14 13 12 12 11 11 11 10 10 10 9 9 8 7 6 6 5 5 5 4 3 2 2 1 1 1 2 3 3 3 4 4 4 4 4 5 5 6 7 7 8 8 8 8 9 10 11 12 13
8 8 8 8 8 9 9 10 10 11 12 12 13 14 15 15 15 16 16 15 15 14 14 15 17 18 19 20 20 19 17 15 14 14 15 14 13 12 11 11 11 11 10 10 10 10 9 8 7 7 7 6 6 6 5 5 4 4 3 3 2 2 2 2 2 2 3 3 4 4 5 6 6 7 7 7 7 8 8 8 9 10 11 11 11
9 9 9 9 10 10 10 11 11 11 12 12 13 14 14 15 15 16 16 16 15 14 14 15 15 16 17 18 18 19 17 15 13 12 13 13 12 11 11 11 10 10 10 10 10 9 8 8 8 8 7 7 7 7 6 6 6 6 5 4 3 2 1 1 1 2 3 3 4 5 6 6 6 6 6 6 6 7 7 8 9 9 10 9 9
9 10 10 10 11 11 12 12 12 12 13 13 13 14 14 14 15 16 16 16 15 14 14 15 15 15 15 15 16 16 15 13 11 11 12 12 12 11 11 11 10 10 10 9 9 9 9 8 8 8 8 8 7 7 7 8 9 8 6 5 3 2 1 0 1 2 3 4 4 5 5 5 5 5 5 5 6 6 7 7 8 8 8 8 8
Wind_Direction
282 269 256 249 244 236 230 230 237 243 244 244 244 241 241 243 238 233 229 223 223 226 224 221 221 221 217 213 212 213 214 214 214 216 216 215 216 220 220 217 217 220 222 223 223 222 220 220 220 218 219 222 224 226 229 233 236 235 227 218 218 230 240 245 249 255 260 259 258 259 259 257 253 247 249 253 258 263 268 275 284 294 299 298 291
295 279 259 247 243 235 229 231 241 249 247 248 254 253 245 242 236 232 229 223 223 226 225 223 224 223 217 211 211 212 212 212 214 215 216 218 219 220 218 214 212 213 214 216 218 218 215 214 216 216 215 218 220 223 229 232 233 233 225 218 222 231 239 245 246 247 253 257 259 261 262 263 263 259 259 261 265 270 276 283 291 297 297 294 290
309 292 269 247 236 234 234 237 246 253 253 256 262 256 246 242 236 231 226 222 222 223 223 223 223 223 218 211 208 210 211 213 216 216 216 218 218 217 214 212 210 210 209 212 215 215 212 212 214 213 214 215 214 217 224 228 231 232 225 221 227 235 241 246 247 249 252 255 258 261 263 265 266 265 265 266 269 273 278 284 289 291 289 286 285
319 309 296 273 240 237 249 249 254 260 261 261 258 252 248 243 236 230 224 221 221 221 221 220 219 220 220 214 208 208 212 215 217 218 215 215 215 213 210 209 210 210 209 211 211 209 208 210 211 211 213 212 209 214 222 226 230 230 226 226 229 233 241 251 256 257 257 254 254 258 264 268 269 268 269 270 271 272 276 280 284 285 284 281 279
313 309 309 309 285 260 260 259 262 265 263 259 254 251 249 241 234 228 223 221 220 217 216 218 217 216 216 216 211 207 210 215 216 218 217 213 211 211 210 209 209 210 211 211 208 204 205 209 207 205 207 206 206 216 222 223 224 220 223 230 229 230 242 255 259 258 257 254 251 251 258 268 273 273 276 283 283 279 276 277 278 277 273 270 266
305 301 299 299 287 270 265 264 266 267 265 263 259 254 248 239 229 222 220 221 221 215 211 214 214 207 208 214 211 206 208 212 213 215 213 210 209 210 210 210 210 209 210 211 210 205 204 205 201 199 202 202 203 210 216 219 220 211 213 223 225 231 246 256 258 257 257 253 243 237 244 259 273 277 281 286 285 274 269 271 273 271 269 268 266
305 304 300 293 282 273 269 269 268 263 260 263 263 256 247 238 225 218 219 223 220 211 206 208 204 196 202 210 209 206 207 207 208 208 206 205 207 209 211 212 211 209 209 210 210 208 205 204 201 198 198 197 197 203 207 213 219 216 213 217 220 232 244 250 254 256 260 260 253 250 252 256 267 279 287 288 283 276 269 268 273 273 270 270 272
307 307 303 296 287 277 272 271 268 262 256 256 257 250 243 235 222 215 220 225 222 209 200 201 198 193 199 207 205 205 205 203 204 204 201 202 205 206 208 209 210 212 212 211 210 209 206 206 207 205 203 199 201 207 210 212 220 223 224 224 225 233 241 245 248 248 250 258 263 268 270 268 270 275 280 283 281 279 276 274 272 271 269 269 273
305 303 300 298 292 284 277 271 264 258 253 250 248 242 236 228 218 214 220 226 223 209 200 200 197 192 197 205 205 203 201 199 200 199 197 200 202 201 201 201 204 208 210 210 210 210 209 212 215 215 214 213 212 211 212 214 221 228 233 236 238 243 246 247 247 247 249 253 257 261 263 267 269 268 268 270 269 270 274 276 273 272 273 274 279
308 305 306 304 295 289 286 276 258 247 245 245 244 240 232 222 217 218 222 222 217 207 202 202 195 190 198 208 205 201 199 197 196 193 194 197 199 200 201 200 201 203 205 207 210 212 213 215 218 219 221 223 220 217 218 223 228 234 240 245 249 252 255 257 257 257 259 261 262 262 262 266 268 266 265 267 269 270 272 274 274 275 276 276 277
314 318 323 319 303 292 288 278 254 237 235 235 235 238 235 224 219 222 221 216 212 207 202 197 192 193 202 207 201 199 198 195 192 191 193 196 198 199 201 203 207 208 206 206 207 209 211 216 219 221 222 224 225 227 231 234 238 244 249 251 252 253 257 261 265 267 268 270 271 272 271 271 273 274 273 274 277 277 275 274 275 277 278 277 276
320 330 335 331 322 313 298 282 260 235 224 219 220 230 234 226 223 225 219 211 206 200 194 193 195 200 203 201 197 197 194 192 191 193 196 198 197 198 203 207 213 215 212 210 210 209 211 215 218 220 222 227 231 235 237 240 245 250 254 257 258 260 262 267 272 276 279 281 283 283 283 282 282 282 283 283 283 282 281 279 279 280 282 284 284
318 335 341 338 333 331 316 294 281 248 212 205 211 221 223 216 216 217 207 197 193 191 192 196 200 201 199 195 195 196 194 193 194 195 198 198 197 200 205 208 213 216 216 216 216 214 214 215 218 223 229 234 239 242 246 249 253 257 262 265 268 270 274 279 284 287 290 292 293 293 293 292 290 289 288 287 286 285 285 285 284 285 287 288 289
316 335 346 343 337 333 325 312 300 263 223 212 213 216 210 203 205 204 193 188 190 192 196 199 198 196 196 195 196 197 198 196 195 196 198 199 200 203 206 208 212 214 216 218 218 217 217 218 223 231 238 243 247 250 252 255 259 263 267 270 274 279 282 287 290 293 296 298 299 300 299 298 297 295 295 293 292 291 290 289 289 289 289 290 290
323 327 334 345 349 341 336 340 329 286 240 224 218 218 212 204 206 202 191 187 191 194 196 196 193 194 195 195 197 200 201 198 197 198 199 201 204 206 206 209 212 214 216 219 221 220 219 222 226 232 240 246 249 250 250 250 251 256 263 267 271 276 279 283 287 290 292 294 296 297 297 297 297 297 296 296 297 297 295 293 290 288 287 288 288
337 327 331 352 1 349 338 343 349 323 259 233 223 220 217 212 209 200 188 185 191 195 195 193 193 194 194 195 199 202 202 201 200 201 203 205 207 209 210 211 213 215 216 217 218 218 219 221 222 224 230 235 241 246 248 249 250 256 264 268 271 273 276 280 283 286 289 291 292 292 292 293 294 295 296 297 296 295 293 292 290 288 288 289 289
351 350 353 2 4 356 348 341 344 339 296 241 223 222 220 213 205 192 183 186 192 194 193 193 194 195 194 197 202 204 204 204 204 204 206 207 209 212 216 216 214 215 217 218 217 216 217 221 225 229 233 237 244 251 255 259 264 270 274 276 278 280 281 284 286 287 289 290 290 290 291 291 292 293 294 296 296 295 294 294 293 292 292 292 291
337 345 351 356 0 4 6 353 333 335 333 266 214 217 217 208 198 189 188 195 197 194 193 194 196 197 198 200 203 205 208 207 207 207 208 209 213 216 219 220 218 217 219 220 220 220 223 229 234 240 245 249 256 262 265 268 273 277 281 281 280 281 281 282 283 284 286 288 288 289 289 289 290 291 292 294 294 293 293 291 291 290 290 290 290
328 338 345 351 0 10 19 21 350 331 334 325 234 210 205 204 200 194 195 200 200 197 196 196 197 199 200 202 203 205 208 209 209 211 213 217 220 221 226 230 227 222 223 228 229 227 228 233 239 246 251 256 261 265 266 270 274 278 279 279 279 280 279 277 276 278 281 284 284 285 285 285 287 288 289 290 289 289 288 288 288 288 288 288 288
325 340 352 359 2 7 11 12 13 355 329 320 295 235 216 212 203 196 201 208 206 204 203 201 202 202 201 200 200 202 207 211 212 214 219 224 226 225 231 234 228 223 228 234 234 231 231 237 243 249 255 259 263 265 267 270 274 276 279 281 282 279 274 270 271 275 278 280 279 280 282 283 284 286 287 288 288 289 289 289 289 289 289 289 289
345 357 15 20 11 9 13 12 9 6 352 323 304 299 279 237 210 204 211 214 208 207 207 203 202 204 203 200 198 202 210 217 222 225 227 229 226 222 227 231 230 234 241 241 240 238 238 242 247 251 256 260 263 266 269 271 274 278 282 285 284 278 268 264 268 274 278 281 282 283 285 286 287 289 289 289 290 290 290 291 291 291 291 292 293
14 12 21 35 16 11 15 14 8 359 352 340 294 290 300 283 235 224 227 223 213 208 208 206 206 210 212 211 209 213 221 228 234 236 233 230 226 224 228 234 238 246 251 251 253 252 248 248 251 253 257 261 265 269 272 274 276 279 282 283 280 275 272 272 277 281 283 285 287 288 289 290 291 291 291 292 292 292 293 294 295 296 297 298 299
9 8 14 34 21 5 1 2 4 358 345 323 260 260 276 278 261 253 251 238 219 207 206 210 213 215 218 221 222 224 227 230 229 225 222 224 228 230 234 240 242 247 251 252 254 254 251 251 253 256 260 266 270 275 277 277 275 273 273 273 274 278 282 283 285 286 287 288 289 290 291 291 292 293 293 294 296 296 297 298 298 299 299 300 300
348 352 359 12 18 7 349 337 334 327 315 301 274 268 267 263 269 281 268 232 208 201 203 206 209 212 216 220 224 226 225 224 222 219 219 227 234 234 235 238 239 242 246 247 247 249 251 254 259 264 268 271 274 280 285 287 283 276 275 279 281 284 285 286 287 288 288 290 290 291 292 293 294 295 296 296 297 298 298 298 298 298 298 298 299
335 331 335 342 352 357 346 335 322 309 301 310 321 305 278 266 276 290 271 222 209 210 210 209 210 214 216 217 220 221 220 220 222 224 223 225 229 230 231 233 235 238 243 247 249 253 256 260 263 266 268 271 278 287 293 296 294 289 286 285 284 285 286 287 288 290 290 291 291 292 293 294 295 296 297 296 297 297 297 298 298 299 300 300 301
316 313 319 325 328 327 335 339 326 306 282 256 255 267 268 279 290 286 263 234 224 223 222 220 218 218 218 220 224 227 226 226 228 231 231 232 235 237 239 241 243 246 249 251 253 256 257 258 260 263 268 277 285 289 290 290 289 287 287 287 287 288 290 290 290 291 291 291 291 292 293 294 295 296 296 297 298 299 300 301 302 303 303 303 302
304 308 314 317 317 318 327 332 320 298 250 195 195 215 214 212 273 282 275 259 245 238 237 236 231 225 226 232 237 238 237 237 238 240 242 243 242 241 242 244 244 245 246 248 251 253 254 257 263 271 279 285 286 287 287 287 287 287 288 288 289 290 290 290 290 291 291 291 291 292 293 294 295 297 298 300 302 303 304 304 304 304 303 302 301
299 299 302 302 302 309 319 324 318 298 260 221 208 203 185 170 189 224 224 217 228 231 226 228 231 230 231 238 244 243 238 235 234 231 230 229 223 221 224 226 228 232 238 243 248 255 262 271 278 282 285 286 287 287 287 288 288 288 288 288 288 288 288 289 289 289 288 289 291 293 295 297 299 301 303 304 305 305 305 304 304 303 303 302 301
293 292 290 285 286 298 306 309 309 296 269 242 217 199 182 171 180 191 186 181 189 198 201 212 222 221 219 224 228 225 217 211 207 204 207 212 213 214 218 221 227 237 247 254 261 267 272 277 280 283 284 285 286 287 288 289 289 289 288 288 287 287 287 287 286 286 287 289 292 295 298 300 303 304 305 306 306 306 305 305 305 304 303 302 301
285 283 278 269 273 290 297 296 295 286 269 248 219 195 183 179 184 189 186 181 178 178 181 192 202 203 201 201 199 194 191 193 195 198 203 209 214 218 223 228 236 246 256 265 271 275 277 278 279 281 283 285 288 290 291 291 290 288 286 285 284 283 283 284 285 287 289 292 295 298 301 303 305 305 306 306 307 307 307 307 306 304 303 302 303
294 287 279 268 268 284 293 294 292 285 275 264 253 245 233 211 195 191 189 183 175 174 179 188 196 203 207 207 205 203 203 204 205 208 211 214 219 223 229 236 245 253 260 265 270 274 276 277 279 282 285 287 289 290 289 288 286 283 281 280 279 280 281 283 285 287 290 295 299 302 304 305 306 307 309 309 309 309 308 306 305 305 306 307 310
314 310 303 295 291 295 301 306 302 293 287 282 274 269 265 257 244 232 221 208 198 193 194 198 205 213 219 222 223 223 222 220 219 221 224 227 230 234 239 246 254 259 263 266 270 274 277 278 281 283 284 285 285 284 283 282 281 279 277 277 277 278 279 281 284 289 294 299 302 304 306 308 310 311 311 310 309 308 307 308 309 310 311 314 318
325 325 323 318 314 311 312 314 310 301 296 296 294 287 278 269 262 259 258 255 249 241 233 229 229 231 234 237 239 241 241 239 237 236 238 242 246 250 253 256 260 263 267 270 273 275 277 278 279 280 280 281 280 279 278 277 276 274 274 274 273 274 276 282 289 295 299 303 305 308 310 311 311 311 309 308 308 308 310 312 313 314 316 319 322
336 334 334 333 331 329 326 324 321 317 314 313 312 310 306 299 290 283 278 275 274 273 269 266 263 260 257 257 257 256 255 254 255 260 268 273 274 272 270 269 269 270 272 273 275 276 277 277 277 278 278 278 278 277 275 273 271 270 269 268 270 275 282 289 295 300 304 307 310 311 312 311 310 309 308 308 309 310 312 313 314 315 318 321 324
341 338 337 335 333 331 329 327 327 330 331 330 329 328 326 324 321 317 312 306 302 300 299 298 296 295 293 290 288 287 285 285 285 287 289 288 284 280 277 275 273 273 273 273 274 275 275 276 276 277 277 276 275 273 271 268 265 263 263 266 273 281 288 294 300 305 309 311 311 311 311 310 309 308 307 308 309 311 313 315 317 320 322 325 327
340 335 333 331 327 325 323 322 323 326 327 328 329 329 328 327 325 324 323 322 321 322 321 320 319 317 316 314 313 310 307 304 300 295 291 285 280 276 274 272 270 269 269 269 270 271 272 273 274 274 273 272 269 266 263 260 259 259 263 270 279 287 294 301 307 310 311 311 310 310 310 308 306 306 305 307 310 313 317 321 323 325 326 327 327
344 336 330 326 322 320 317 315 313 310 309 309 310 311 312 313 313 314 317 319 321 322 321 320 318 317 315 314 313 309 305 299 294 290 287 282 278 274 272 269 267 266 266 267 268 269 270 271 271 270 269 267 263 259 256 254 254 257 264 277 289 297 304 308 310 310 309 309 309 309 308 306 304 304 305 309 313 318 322 326 327 327 326 325 324
343 340 335 331 327 324 320 315 308 303 300 298 299 301 304 305 305 307 308 310 311 312 311 309 309 308 306 304 300 295 291 286 282 279 277 276 274 272 270 267 265 265 265 267 267 267 267 267 267 266 264 260 256 251 248 247 251 261 276 291 301 306 308 309 309 310 310 310 309 308 307 304 303 305 309 314 319 324 327 327 326 324 322 321 320
344 344 342 340 336 331 325 320 316 311 306 303 301 302 303 304 304 304 303 304 305 305 303 303 304 304 302 297 291 285 281 278 275 273 272 271 270 268 266 265 264 263 263 264 263 263 262 261 260 257 254 250 247 246 247 253 266 281 293 301 304 306 307 309 311 311 310 308 306 306 304 304 306 310 316 321 326 329 328 325 323 321 319 318 317
344 345 345 344 340 334 330 327 325 321 318 316 315 313 311 308 305 301 300 301 303 303 302 300 299 297 292 287 281 278 276 276 276 275 272 271 269 267 266 264 263 262 260 259 257 256 254 252 249 246 244 243 244 249 259 273 286 295 299 301 303 307 310 312 311 308 306 304 303 303 304 307 312 319 326 331 333 331 326 322 320 317 316 317 319
345 346 346 345 340 337 337 337 335 333 330 328 327 327 326 322 316 311 307 306 306 306 305 303 301 298 293 288 284 281 280 282 285 285 282 278 273 270 268 267 264 261 257 253 250 248 246 244 242 241 242 244 247 256 270 283 289 293 297 302 308 311 312 311 311 309 308 308 308 308 312 318 326 333 337 338 335 330 326 321 318 316 318 324 330
356 355 353 348 344 343 344 344 342 340 339 338 337 337 336 333 329 325 321 318 317 316 314 312 310 308 304 300 297 295 293 293 293 292 290 287 282 277 273 270 266 261 257 252 249 245 242 241 241 243 244 246 249 258 269 277 282 291 300 307 311 313 314 316 318 319 319 320 319 321 328 338 345 346 345 340 334 329 325 322 321 325 331 337 342
9 6 2 357 354 353 351 348 347 347 347 348 349 348 344 340 338 335 331 328 327 324 321 317 315 313 311 308 305 303 302 301 299 298 296 292 286 281 276 270 265 261 257 253 249 247 244 243 243 242 241 240 241 247 256 264 273 286 297 306 312 318 323 328 330 331 333 334 335 340 350 357 356 350 344 337 331 327 327 329 333 339 343 345 346
18 14 9 5 3 2 359 356 356 356 356 358 0 358 352 347 344 340 336 332 329 325 322 319 315 313 311 309 307 305 303 302 300 299 297 292 287 282 277 271 264 259 256 253 250 248 246 243 239 235 230 226 224 228 235 240 249 263 281 306 321 327 332 335 337 339 343 346 350 358 5 5 357 347 339 336 333 334 338 340 342 345 347 348 350
21 19 16 13 9 7 4 2 1 360 359 360 1 0 357 353 348 344 339 335 331 328 326 324 321 319 316 313 310 307 305 303 301 299 295 290 285 281 276 270 263 258 255 253 250 247 242 235 228 223 219 214 210 210 214 216 222 238 269 309 321 326 331 336 340 347 354 3 11 16 16 11 360 345 339 340 342 343 345 345 345 347 349 351 352
20 18 17 14 9 5 3 0 358 356 355 354 354 353 352 351 347 344 341 337 334 332 330 328 326 324 321 319 316 313 310 308 305 301 295 289 283 278 272 266 261 256 252 249 245 239 233 226 219 214 210 206 205 208 210 210 215 234 265 297 317 329 341 349 358 9 20 27 32 32 25 13 357 344 341 343 344 345 346 347 347 348 349 350 351
20 17 14 9 4 0 357 353 350 347 345 344 343 342 341 340 338 336 335 333 332 331 330 328 327 326 324 323 321 319 316 314 312 308 303 296 289 282 273 263 255 250 247 243 237 229 223 220 215 209 205 206 210 217 221 223 228 242 262 289 324 349 10 25 33 39 42 41 37 27 10 354 343 338 338 339 340 341 343 345 346 346 347 347 348
19 17 14 10 7 3 359 355 351 349 347 346 344 342 341 339 336 333 331 329 327 327 326 324 323 322 321 321 321 320 319 317 316 313 309 302 296 287 274 260 250 243 239 236 230 223 220 219 215 210 210 215 220 225 229 233 235 237 230 206 144 90 70 60 52 46 38 27 14 359 344 334 330 330 332 335 336 339 341 343 344 343 343 344 346
6 4 2 359 359 357 354 352 350 348 347 347 346 346 346 345 343 342 339 334 331 329 326 322 319 317 316 316 316 316 317 317 316 314 310 304 296 284 270 256 247 241 236 233 229 225 224 224 222 219 222 227 229 227 226 223 216 204 189 172 156 133 101 64 38 19 6 356 347 338 334 330 329 332 334 336 336 338 340 340 339 340 343 346 350
354 352 349 347 346 344 341 339 338 337 337 337 338 339 340 341 343 345 344 342 339 336 333 328 321 314 311 310 310 311 312 313 313 311 308 302 293 281 268 257 249 243 236 232 231 232 234 232 231 231 235 236 232 225 217 206 196 187 182 176 167 155 128 45 1 350 344 343 343 342 340 337 336 337 338 338 337 338 338 337 338 342 347 353 1
346 345 344 342 340 338 336 333 332 331 332 332 333 334 335 336 339 341 342 342 342 343 342 338 331 320 310 305 304 304 306 307 306 304 303 300 293 285 275 267 259 252 245 241 242 243 240 235 237 243 246 242 232 220 206 194 187 185 185 185 185 187 197 262 333 345 349 353 355 353 345 341 341 342 340 339 338 337 336 339 345 351 357 5 15
Height
3091 3090 3090 3091 3093 3093 3094 3097 3099 3101 3102 3099 3098 3103 3108 3111 3112 3112 3113 3114 3116 3117 3118 3119 3121 3123 3125 3127 3128 3129 3130 3131 3133 3134 3135 3137 3138 3140 3141 3142 3143 3144 3144 3145 3146 3147 3148 3149 3150 3150 3151 3152 3152 3153 3154 3155 3156 3157 3158 3158 3159 3159 3159 3159 3160 3160 3160 3161 3161 3161 3161 3162 3162 3162 3163 3163 3163 3164 3164 3163 3164 3164 3164 3164 3164
3090 3089 3088 3090 3092 3093 3095 3098 3100 3100 3099 3097 3099 3106 3109 3109 3110 3111 3112 3114 3115 3116 3117 3119 3121 3122 3124 3125 3126 3128 3129 3130 3131 3132 3134 3135 3137 3138 3140 3141 3142 3143 3144 3145 3145 3146 3147 3148 3149 3149 3150 3151 3152 3153 3154 3155 3155 3156 3157 3157 3158 3158 3158 3158 3159 3159 3160 3160 3160 3160 3160 3161 3161 3161 3162 3162 3162 3162 3162 3162 3163 3163 3163 3162 3162
3090 3088 3088 3089 3091 3093 3095 3097 3097 3097 3097 3098 3103 3106 3106 3106 3108 3109 3110 3112 3114 3115 3116 3117 3119 3121 3123 3124 3125 3126 3128 3129 3130 3131 3132 3134 3135 3137 3138 3140 3141 3142 3143 3144 3145 3146 3147 3147 3148 3149 3150 3150 3151 3152 3153 3154 3155 3155 3156 3157 3157 3157 3157 3157 3158 3158 3159 3159 3159 3159 3159 3159 3160 3160 3160 3161 3161 3161 3161 3161 3161 3161 3161 3161 3161
3091 3089 3089 3089 3090 3092 3093 3094 3095 3096 3098 3100 3102 3103 3103 3105 3106 3107 3108 3110 3112 3113 3114 3116 3118 3119 3121 3123 3123 3125 3126 3128 3129 3130 3131 3133 3134 3135 3137 3138 3140 3141 3142 3143 3144 3145 3146 3147 3147 3148 3149 3150 3150 3151 3152 3153 3154 3155 3155 3156 3156 3156 3156 3157 3157 3157 3157 3158 3158 3158 3158 3158 3158 3159 3159 3159 3159 3159 3160 3160 3160 3160 3160 3160 3160
3091 3090 3090 3090 3091 3092 3092 3093 3094 3096 3097 3098 3099 3100 3102 3103 3104 3105 3106 3108 3109 3111 3112 3114 3116 3118 3120 3122 3123 3123 3125 3126 3128 3129 3130 3132 3133 3134 3136 3137 3138 3140 3141 3142 3143 3144 3145 3146 3146 3147 3148 3149 3150 3150 3151 3152 3153 3154 3155 3155 3156 3156 3156 3156 3156 3156 3156 3157 3157 3157 3157 3157 3157 3158 3158 3158 3158 3158 3158 3159 3159 3159 3159 3159 3159
3090 3090 3089 3090 3091 3091 3091 3091 3093 3095 3096 3096 3096 3098 3099 3100 3102 3103 3104 3105 3107 3108 3110 3112 3114 3116 3119 3121 3122 3122 3123 3125 3126 3128 3129 3131 3132 3133 3135 3136 3137 3139 3140 3141 3142 3144 3144 3145 3146 3146 3147 3148 3149 3150 3150 3151 3152 3153 3154 3154 3155 3155 3155 3156 3156 3156 3156 3156 3156 3156 3156 3157 3157 3157 3157 3157 3157 3157 3157 3158 3158 3158 3158 3158 3158
3089 3089 3088 3088 3089 3089 3089 3090 3092 3093 3093 3093 3094 3095 3097 3098 3099 3100 3102 3103 3105 3106 3108 3110 3112 3115 3117 3119 3120 3121 3122 3124 3125 3127 3128 3130 3131 3133 3134 3135 3137 3138 3139 3140 3141 3143 3144 3144 3145 3146 3147 3147 3148 3149 3150 3150 3151 3152 3153 3154 3154 3154 3155 3155 3155 3156 3156 3156 3156 3156 3156 3156 3156 3156 3157 3157 3157 3157 3157 3157 3158 3158 3158 3157 3157
3089 3088 3088 3087 3088 3087 3087 3088 3089 3090 3091 3091 3091 3092 3094 3095 3096 3098 3100 3101 3103 3104 3106 3108 3110 3113 3115 3117 3119 3120 3121 3123 3125 3126 3128 3129 3131 3132 3134 3135 3136 3137 3138 3139 3140 3142 3143 3144 3144 3145 3146 3147 3147 3148 3149 3149 3150 3150 3151 3152 3153 3153 3154 3154 3154 3155 3155 3155 3155 3156 3156 3156 3156 3156 3156 3156 3156 3156 3155 3156 3156 3156 3156 3156 3156
3089 3088 3087 3087 3086 3086 3085 3085 3086 3087 3088 3089 3088 3090 3091 3093 3094 3097 3098 3100 3101 3102 3104 3106 3108 3111 3113 3116 3118 3119 3121 3122 3124 3126 3127 3128 3130 3131 3133 3134 3135 3136 3137 3138 3140 3141 3142 3143 3144 3144 3145 3146 3146 3147 3148 3149 3149 3150 3150 3151 3152 3152 3152 3153 3153 3153 3154 3154 3154 3155 3155 3155 3155 3155 3154 3154 3154 3154 3154 3155 3155 3155 3155 3155 3155
3088 3087 3086 3086 3085 3084 3083 3083 3084 3085 3086 3087 3086 3087 3089 3091 3093 3095 3096 3098 3099 3101 3103 3104 3107 3109 3112 3114 3117 3118 3120 3122 3123 3125 3126 3127 3129 3130 3132 3133 3134 3135 3136 3138 3139 3140 3141 3142 3143 3143 3144 3145 3145 3146 3147 3148 3148 3149 3149 3150 3150 3151 3151 3151 3151 3152 3152 3152 3153 3153 3153 3153 3153 3153 3153 3153 3153 3153 3153 3153 3153 3153 3153 3153 3154
3086 3085 3084 3084 3083 3083 3082 3081 3082 3083 3084 3085 3085 3085 3087 3089 3091 3093 3094 3096 3098 3099 3101 3103 3106 3108 3111 3113 3116 3117 3119 3121 3122 3124 3125 3126 3128 3129 3130 3132 3133 3134 3135 3137 3138 3139 3140 3141 3142 3142 3143 3144 3145 3145 3146 3147 3147 3148 3148 3149 3149 3149 3149 3149 3150 3150 3150 3151 3151 3151 3151 3151 3151 3151 3151 3151 3151 3151 3151 3151 3151 3151 3151 3151 3152
3085 3084 3083 3082 3082 3081 3081 3080 3080 3081 3082 3083 3084 3085 3086 3088 3089 3091 3092 3094 3096 3098 3100 3102 3105 3107 3110 3112 3115 3116 3118 3120 3121 3123 3124 3125 3127 3128 3129 3130 3132 3133 3134 3136 3137 3138 3139 3140 3140 3141 3142 3143 3144 3144 3145 3145 3146 3146 3146 3147 3147 3147 3147 3147 3148 3148 3148 3149 3149 3149 3149 3149 3149 3149 3149 3149 3149 3149 3149 3149 3149 3148 3148 3148 3149
3084 3083 3082 3082 3081 3080 3080 3079 3079 3080 3081 3082 3084 3084 3085 3087 3088 3089 3090 3092 3095 3097 3100 3102 3104 3106 3108 3111 3113 3115 3117 3119 3120 3121 3123 3124 3125 3127 3128 3129 3131 3132 3133 3134 3135 3136 3137 3138 3139 3140 3141 3141 3142 3142 3142 3143 3143 3144 3144 3144 3145 3145 3145 3145 3145 3145 3146 3146 3146 3146 3146 3146 3146 3146 3146 3146 3146 3146 3146 3146 3145 3145 3145 3145 3145
3084 3083 3082 3082 3081 3080 3079 3079 3079 3079 3080 3081 3083 3084 3085 3086 3087 3089 3091 3093 3095 3097 3099 3101 3103 3105 3107 3110 3112 3114 3116 3117 3118 3120 3121 3122 3124 3125 3127 3128 3129 3131 3132 3133 3134 3135 3136 3137 3138 3138 3139 3139 3140 3140 3140 3141 3141 3141 3142 3142 3142 3143 3143 3143 3143 3143 3143 3143 3143 3143 3143 3143 3143 3143 3143 3143 3143 3143 3142 3142 3142 3142 3142 3142 3142
3084 3083 3082 3081 3081 3080 3080 3079 3079 3079 3079 3080 3082 3083 3084 3085 3087 3088 3090 3093 3094 3096 3098 3100 3102 3104 3106 3108 3110 3112 3114 3116 3117 3118 3120 3121 3123 3124 3126 3127 3128 3129 3131 3132 3133 3134 3135 3136 3136 3137 3137 3138 3138 3139 3139 3139 3139 3140 3140 3140 3141 3141 3141 3141 3141 3142 3142 3141 3141 3141 3141 3141 3140 3140 3140 3139 3139 3139 3139 3139 3138 3138 3138 3138 3138
3084 3083 3082 3081 3081 3080 3080 3080 3079 3079 3079 3079 3080 3081 3083 3084 3086 3087 3089 3092 3094 3095 3097 3099 3101 3103 3105 3107 3109 3111 3113 3114 3116 3117 3119 3120 3122 3123 3125 3126 3127 3128 3129 3131 3132 3132 3133 3134 3135 3135 3136 3136 3137 3137 3138 3138 3138 3139 3139 3139 3139 3139 3139 3139 3139 3139 3140 3139 3139 3139 3138 3138 3137 3137 3136 3136 3136 3136 3136 3135 3135 3135 3135 3135 3134
3083 3083 3082 3081 3081 3080 3080 3080 3080 3080 3079 3079 3080 3081 3082 3083 3085 3087 3089 3091 3093 3094 3096 3097 3100 3102 3104 3106 3108 3110 3112 3113 3115 3116 3118 3120 3121 3123 3124 3125 3126 3127 3128 3129 3130 3131 3132 3132 3133 3134 3134 3135 3135 3136 3136 3137 3137 3137 3138 3138 3138 3138 3137 3137 3137 3137 3137 3137 3136 3136 3136 3135 3134 3134 3133 3133 3133 3133 3133 3132 3132 3131 3131 3130 3130
3083 3082 3082 3081 3081 3080 3080 3080 3080 3080 3080 3080 3081 3082 3082 3083 3085 3087 3089 3091 3092 3094 3095 3097 3099 3101 3103 3105 3107 3109 3111 3113 3114 3115 3117 3118 3120 3121 3122 3123 3125 3126 3127 3127 3128 3129 3130 3131 3131 3132 3133 3133 3134 3134 3135 3135 3135 3135 3135 3135 3135 3135 3135 3135 3135 3134 3134 3134 3134 3133 3133 3132 3132 3131 3131 3131 3130 3130 3130 3129 3129 3128 3127 3126 3126
3083 3082 3082 3081 3080 3080 3080 3080 3080 3080 3080 3081 3082 3082 3083 3084 3085 3087 3089 3091 3092 3094 3095 3097 3098 3100 3102 3104 3106 3108 3110 3112 3113 3114 3116 3117 3118 3119 3121 3121 3122 3123 3124 3125 3125 3126 3127 3129 3130 3130 3131 3132 3132 3132 3133 3132 3132 3132 3132 3132 3132 3132 3132 3132 3132 3132 3132 3131 3131 3131 3130 3130 3129 3129 3129 3128 3128 3127 3127 3126 3125 3125 3124 3123 3122
3083 3082 3082 3081 3081 3080 3080 3080 3080 3081 3081 3081 3082 3083 3083 3084 3085 3087 3089 3090 3092 3094 3095 3097 3098 3099 3101 3103 3105 3107 3109 3110 3112 3113 3115 3116 3117 3118 3119 3120 3120 3121 3122 3123 3123 3123 3125 3126 3127 3128 3129 3129 3129 3130 3129 3129 3129 3129 3129 3129 3129 3128 3128 3129 3129 3129 3129 3129 3129 3129 3128 3127 3127 3127 3126 3126 3125 3124 3123 3123 3122 3121 3120 3119 3119
3083 3083 3082 3082 3082 3081 3081 3080 3080 3081 3081 3082 3082 3083 3083 3084 3085 3086 3087 3089 3091 3093 3094 3096 3098 3099 3100 3102 3104 3106 3108 3109 3110 3112 3114 3114 3115 3117 3117 3118 3119 3119 3120 3121 3121 3122 3123 3124 3124 3125 3126 3126 3126 3126 3125 3125 3125 3125 3125 3125 3125 3124 3124 3125 3126 3126 3126 3126 3126 3126 3125 3125 3124 3124 3123 3123 3122 3121 3120 3119 3118 3117 3116 3115 3114
3083 3083 3083 3083 3083 3082 3082 3082 3081 3081 3081 3081 3082 3083 3083 3084 3085 3086 3087 3088 3089 3091 3093 3095 3097 3098 3099 3101 3103 3105 3106 3107 3108 3110 3111 3112 3112 3114 3115 3116 3116 3117 3117 3118 3119 3119 3120 3121 3121 3122 3122 3122 3122 3122 3122 3122 3121 3122 3122 3122 3121 3121 3122 3122 3123 3123 3123 3123 3122 3122 3122 3121 3120 3120 3119 3118 3118 3117 3116 3115 3114 3113 3111 3110 3109
3083 3083 3083 3083 3083 3083 3083 3083 3083 3083 3082 3082 3082 3083 3083 3084 3085 3086 3086 3086 3088 3090 3093 3095 3096 3097 3097 3099 3101 3103 3104 3106 3106 3107 3109 3109 3109 3110 3112 3113 3114 3114 3115 3116 3116 3116 3117 3118 3118 3119 3119 3119 3119 3119 3118 3118 3117 3118 3119 3119 3119 3119 3119 3119 3120 3120 3119 3119 3119 3118 3118 3117 3117 3116 3115 3114 3114 3113 3112 3111 3110 3109 3107 3106 3105
3083 3083 3084 3083 3083 3083 3084 3084 3084 3084 3084 3084 3083 3083 3083 3084 3085 3085 3085 3086 3087 3089 3091 3093 3095 3096 3096 3096 3098 3100 3102 3103 3104 3105 3106 3107 3107 3108 3109 3110 3110 3111 3112 3113 3113 3113 3114 3114 3115 3116 3116 3116 3116 3116 3115 3114 3114 3115 3116 3116 3116 3117 3117 3117 3117 3117 3116 3116 3115 3115 3114 3114 3113 3112 3112 3111 3110 3110 3109 3108 3107 3106 3104 3103 3102
3083 3083 3083 3083 3083 3083 3083 3084 3084 3084 3084 3084 3084 3084 3084 3084 3085 3085 3085 3086 3087 3087 3089 3091 3092 3093 3094 3095 3097 3098 3099 3100 3102 3102 3103 3104 3105 3105 3106 3107 3107 3108 3109 3110 3110 3110 3111 3112 3112 3113 3114 3114 3114 3113 3113 3113 3113 3113 3114 3114 3114 3114 3114 3114 3114 3114 3113 3113 3112 3112 3111 3111 3110 3109 3109 3108 3108 3107 3106 3105 3104 3102 3101 3099 3098
3083 3083 3083 3083 3083 3083 3083 3083 3083 3083 3083 3084 3084 3084 3085 3085 3085 3085 3086 3086 3087 3087 3089 3090 3091 3092 3093 3094 3095 3096 3097 3098 3099 3100 3101 3101 3102 3102 3103 3104 3105 3105 3106 3107 3107 3108 3108 3109 3110 3110 3111 3111 3111 3111 3111 3111 3111 3111 3111 3111 3111 3111 3111 3111 3111 3111 3110 3110 3110 3109 3109 3108 3108 3107 3106 3106 3105 3104 3103 3101 3100 3098 3096 3095 3093
3082 3082 3082 3083 3083 3082 3083 3083 3083 3083 3083 3083 3083 3083 3084 3085 3085 3085 3086 3086 3086 3087 3088 3089 3090 3091 3092 3093 3094 3095 3096 3096 3097 3098 3098 3099 3099 3100 3100 3101 3102 3103 3103 3104 3104 3105 3106 3107 3107 3108 3108 3109 3109 3109 3109 3109 3109 3108 3108 3108 3108 3108 3108 3108 3108 3108 3107 3107 3107 3106 3106 3106 3105 3105 3104 3103 3101 3100 3099 3097 3096 3094 3093 3091 3089
3082 3082 3082 3082 3083 3082 3083 3083 3083 3084 3084 3083 3082 3082 3083 3083 3084 3084 3085 3086 3086 3087 3088 3088 3089 3090 3091 3091 3092 3093 3093 3094 3095 3095 3096 3096 3097 3097 3098 3099 3100 3100 3101 3101 3102 3102 3103 3104 3104 3105 3106 3106 3106 3106 3106 3106 3106 3105 3105 3105 3105 3105 3105 3105 3105 3105 3105 3104 3104 3104 3103 3103 3102 3101 3100 3099 3098 3097 3095 3094 3093 3091 3089 3088 3086
3082 3082 3082 3082 3082 3082 3082 3083 3083 3084 3084 3084 3083 3082 3082 3082 3082 3083 3084 3084 3085 3086 3087 3087 3088 3088 3089 3090 3090 3091 3092 3092 3093 3094 3094 3095 3095 3096 3096 3097 3097 3098 3098 3098 3099 3100 3101 3101 3101 3102 3103 3103 3103 3103 3103 3103 3103 3102 3102 3102 3102 3102 3102 3102 3102 3102 3102 3102 3101 3101 3101 3100 3099 3098 3097 3096 3094 3093 3092 3091 3089 3087 3086 3084 3083
3082 3082 3082 3082 3082 3082 3082 3083 3083 3084 3084 3084 3084 3084 3083 3083 3083 3083 3083 3083 3083 3084 3085 3086 3086 3087 3087 3088 3088 3089 3089 3090 3091 3091 3092 3092 3093 3094 3094 3095 3095 3095 3096 3096 3097 3098 3099 3099 3099 3100 3100 3100 3100 3100 3100 3100 3100 3100 3099 3099 3099 3099 3099 3099 3099 3099 3099 3099 3099 3098 3098 3097 3096 3095 3094 3092 3091 3090 3088 3087 3086 3084 3083 3081 3080
3082 3082 3082 3082 3082 3082 3082 3082 3083 3083 3083 3084 3084 3084 3084 3083 3083 3083 3083 3083 3083 3082 3083 3084 3084 3085 3086 3086 3087 3087 3087 3087 3088 3088 3088 3089 3090 3090 3091 3091 3092 3093 3093 3094 3095 3096 3096 3097 3097 3097 3097 3097 3097 3097 3097 3097 3097 3097 3097 3097 3097 3097 3097 3097 3097 3097 3097 3096 3096 3095 3095 3094 3093 3091 3090 3089 3087 3086 3085 3084 3083 3081 3080 3078 3076
3082 3082 3082 3082 3082 3082 3082 3082 3082 3082 3083 3083 3083 3083 3083 3083 3083 3083 3083 3083 3082 3081 3082 3082 3083 3083 3084 3084 3085 3085 3085 3085 3085 3086 3086 3086 3087 3088 3088 3089 3089 3090 3091 3092 3093 3094 3094 3094 3094 3094 3094 3094 3094 3094 3094 3094 3094 3094 3094 3094 3094 3094 3094 3095 3095 3095 3094 3094 3093 3092 3091 3090 3088 3087 3086 3085 3085 3084 3083 3081 3080 3078 3076 3074 3073
3082 3082 3082 3082 3082 3082 3081 3081 3081 3081 3082 3082 3082 3082 3082 3082 3081 3081 3082 3082 3081 3081 3081 3081 3081 3082 3082 3082 3083 3083 3083 3084 3084 3084 3084 3085 3085 3086 3087 3087 3088 3089 3089 3090 3091 3091 3091 3091 3092 3092 3092 3092 3092 3092 3092 3092 3092 3092 3092 3092 3092 3092 3092 3092 3092 3092 3091 3091 3089 3088 3087 3086 3085 3085 3084 3083 3082 3081 3079 3078 3076 3075 3073 3071 3069
3082 3082 3082 3082 3081 3081 3081 3081 3081 3081 3081 3081 3081 3081 3081 3080 3080 3080 3080 3080 3080 3080 3080 3080 3080 3080 3080 3080 3081 3081 3081 3082 3082 3082 3083 3084 3085 3085 3086 3086 3087 3087 3087 3088 3088 3088 3088 3089 3089 3089 3089 3089 3089 3089 3089 3089 3089 3089 3089 3090 3090 3090 3090 3090 3089 3089 3088 3087 3085 3084 3084 3083 3083 3082 3081 3080 3079 3078 3077 3075 3074 3072 3070 3068 3067
3082 3082 3082 3082 3081 3081 3081 3081 3081 3081 3081 3080 3080 3080 3079 3079 3079 3078 3078 3078 3078 3078 3078 3079 3079 3079 3079 3079 3079 3080 3080 3080 3081 3081 3082 3083 3084 3084 3085 3085 3085 3085 3085 3085 3085 3085 3086 3086 3086 3086 3086 3086 3086 3086 3086 3087 3087 3087 3088 3088 3088 3088 3087 3087 3086 3085 3084 3083 3082 3082 3082 3081 3080 3080 3079 3078 3077 3075 3074 3072 3071 3069 3068 3066 3065
3083 3082 3082 3082 3082 3081 3081 3081 3081 3081 3081 3081 3080 3080 3079 3079 3078 3078 3077 3077 3077 3077 3077 3077 3077 3077 3078 3078 3078 3078 3079 3079 3079 3080 3081 3081 3082 3082 3083 3083 3083 3083 3083 3083 3083 3083 3083 3084 3084 3084 3084 3084 3084 3084 3085 3085 3085 3086 3086 3085 3085 3085 3084 3083 3082 3082 3081 3081 3081 3080 3080 3079 3078 3077 3076 3075 3074 3073 3071 3070 3068 3067 3066 3065 3064
3083 3082 3082 3082 3082 3081 3081 3081 3081 3081 3081 3080 3080 3080 3079 3079 3078 3078 3077 3077 3077 3076 3076 3076 3076 3076 3076 3077 3077 3077 3077 3078 3078 3078 3079 3079 3080 3080 3080 3081 3081 3081 3081 3081 3081 3081 3081 3081 3081 3081 3082 3082 3082 3082 3083 3083 3083 3083 3083 3083 3082 3082 3081 3080 3080 3080 3079 3079 3078 3078 3077 3077 3076 3075 3074 3073 3071 3070 3069 3067 3066 3065 3064 3063 3063
3083 3082 3082 3082 3082 3081 3081 3081 3080 3080 3080 3080 3080 3079 3079 3078 3078 3078 3077 3077 3077 3076 3076 3075 3075 3075 3075 3075 3076 3076 3076 3076 3077 3077 3077 3078 3078 3079 3079 3079 3079 3079 3079 3079 3079 3079 3079 3079 3079 3079 3079 3079 3080 3080 3081 3081 3081 3081 3080 3079 3079 3078 3078 3078 3078 3077 3077 3076 3076 3075 3075 3074 3073 3072 3071 3070 3069 3067 3066 3065 3064 3064 3063 3062 3061
3082 3082 3082 3082 3082 3081 3081 3080 3080 3079 3079 3079 3079 3078 3078 3078 3077 3077 3077 3076 3076 3076 3076 3076 3075 3075 3075 3075 3075 3075 3075 3075 3075 3076 3076 3076 3076 3076 3077 3077 3077 3077 3077 3076 3076 3076 3076 3076 3077 3077 3077 3077 3078 3078 3078 3078 3077 3077 3076 3076 3076 3076 3076 3076 3075 3075 3074 3074 3074 3073 3072 3071 3070 3069 3068 3067 3066 3065 3064 3064 3063 3062 3062 3061 3060
3082 3082 3082 3082 3081 3081 3080 3080 3079 3079 3079 3078 3078 3078 3077 3077 3076 3076 3075 3075 3075 3076 3076 3075 3075 3075 3075 3075 3075 3074 3074 3074 3074 3074 3074 3074 3074 3074 3074 3074 3074 3074 3074 3074 3074 3074 3074 3074 3075 3075 3075 3075 3075 3075 3074 3074 3073 3073 3073 3073 3074 3074 3074 3073 3073 3073 3073 3072 3072 3071 3070 3069 3068 3067 3066 3065 3064 3063 3063 3062 3062 3061 3061 3060 3059
3082 3082 3081 3081 3081 3081 3080 3080 3079 3079 3078 3078 3077 3077 3076 3076 3075 3075 3074 3074 3074 3074 3074 3074 3074 3074 3074 3074 3074 3074 3073 3073 3073 3072 3072 3072 3072 3072 3072 3072 3072 3072 3072 3072 3072 3072 3072 3072 3072 3072 3072 3072 3072 3072 3071 3071 3071 3071 3071 3072 3072 3072 3072 3072 3072 3071 3071 3070 3069 3069 3068 3067 3066 3064 3064 3063 3063 3062 3062 3062 3061 3061 3060 3059 3058
3082 3082 3082 3081 3081 3080 3080 3080 3079 3079 3078 3077 3077 3076 3076 3075 3075 3074 3074 3073 3073 3073 3073 3073 3073 3073 3072 3072 3072 3072 3071 3071 3071 3071 3070 3070 3070 3069 3069 3069 3069 3069 3069 3069 3070 3070 3070 3070 3070 3070 3070 3070 3070 3069 3069 3069 3069 3070 3070 3070 3070 3070 3070 3070 3070 3069 3069 3068 3067 3066 3065 3065 3064 3063 3062 3062 3062 3062 3062 3061 3061 3060 3059 3058 3057
3082 3082 3082 3081 3081 3081 3080 3079 3079 3078 3078 3077 3077 3076 3075 3075 3074 3074 3073 3073 3072 3072 3072 3072 3072 3071 3071 3070 3070 3070 3069 3069 3069 3069 3068 3068 3068 3067 3067 3067 3067 3067 3067 3067 3067 3067 3068 3068 3068 3068 3068 3068 3068 3068 3068 3068 3068 3068 3068 3069 3069 3069 3069 3068 3068 3067 3067 3066 3065 3064 3064 3063 3062 3062 3062 3062 3062 3062 3062 3061 3060 3059 3058 3058 3057
3083 3083 3082 3082 3081 3081 3080 3079 3079 3078 3078 3077 3077 3076 3075 3075 3074 3074 3073 3073 3072 3072 3071 3071 3071 3070 3070 3069 3069 3068 3068 3067 3067 3067 3066 3066 3066 3066 3065 3065 3065 3065 3065 3065 3065 3066 3066 3066 3066 3066 3066 3066 3066 3066 3067 3067 3067 3067 3067 3067 3067 3067 3067 3067 3066 3065 3065 3064 3064 3063 3063 3062 3062 3062 3062 3062 3062 3062 3061 3060 3060 3059 3058 3057 3056
3084 3083 3083 3082 3082 3081 3081 3080 3079 3079 3078 3078 3077 3077 3076 3075 3075 3074 3073 3072 3072 3071 3071 3070 3070 3069 3069 3068 3068 3067 3066 3066 3065 3065 3065 3064 3064 3064 3063 3063 3063 3063 3063 3064 3064 3064 3064 3064 3065 3065 3065 3065 3065 3065 3066 3066 3066 3066 3066 3066 3066 3066 3066 3065 3065 3064 3064 3063 3063 3062 3062 3062 3063 3063 3062 3062 3062 3061 3061 3060 3059 3058 3057 3056 3055
3084 3084 3083 3083 3082 3081 3081 3080 3079 3079 3078 3078 3077 3077 3076 3076 3075 3074 3073 3072 3071 3071 3070 3069 3068 3068 3067 3067 3066 3066 3065 3064 3064 3063 3063 3062 3062 3062 3062 3062 3062 3062 3062 3062 3062 3063 3063 3063 3064 3064 3064 3064 3064 3065 3065 3065 3065 3065 3065 3065 3065 3064 3064 3064 3063 3063 3062 3062 3062 3062 3062 3063 3063 3062 3062 3062 3061 3061 3060 3059 3058 3058 3057 3056 3055
3085 3084 3084 3083 3082 3082 3081 3080 3079 3079 3078 3077 3077 3076 3076 3075 3075 3074 3073 3072 3071 3070 3069 3068 3067 3066 3066 3065 3065 3064 3063 3062 3062 3061 3061 3061 3060 3060 3060 3060 3060 3060 3060 3061 3061 3061 3062 3062 3062 3063 3063 3063 3063 3064 3064 3064 3064 3064 3064 3064 3063 3063 3063 3063 3062 3062 3062 3062 3062 3062 3062 3062 3062 3062 3061 3061 3060 3060 3059 3058 3058 3057 3056 3055 3054
3086 3085 3084 3084 3083 3082 3081 3080 3080 3079 3078 3077 3077 3076 3075 3075 3074 3073 3073 3072 3071 3070 3069 3067 3066 3065 3064 3063 3063 3062 3062 3061 3060 3060 3059 3059 3058 3058 3058 3058 3058 3058 3059 3059 3060 3060 3061 3061 3061 3061 3062 3062 3062 3063 3063 3063 3063 3063 3063 3063 3062 3062 3062 3062 3062 3062 3062 3062 3062 3062 3062 3062 3062 3061 3061 3060 3060 3059 3058 3058 3057 3056 3056 3055 3054
3086 3085 3084 3084 3083 3082 3081 3080 3079 3079 3078 3077 3076 3076 3075 3074 3073 3072 3071 3070 3069 3069 3068 3066 3065 3064 3063 3062 3061 3061 3060 3060 3059 3059 3058 3058 3057 3057 3057 3057 3057 3057 3058 3058 3058 3059 3059 3059 3059 3060 3061 3061 3061 3062 3062 3062 3062 3062 3062 3062 3062 3062 3061 3061 3061 3061 3061 3061 3061 3061 3061 3061 3060 3060 3060 3059 3059 3058 3058 3057 3057 3056 3055 3054 3053
3085 3085 3084 3083 3082 3082 3081 3080 3079 3078 3077 3077 3076 3075 3074 3073 3073 3072 3071 3070 3068 3067 3066 3065 3064 3062 3061 3060 3060 3059 3059 3059 3058 3058 3057 3057 3056 3056 3056 3056 3056 3056 3057 3057 3057 3057 3057 3058 3058 3059 3060 3060 3060 3061 3061 3061 3061 3061 3061 3061 3061 3061 3061 3061 3061 3061 3061 3060 3060 3060 3060 3060 3059 3059 3059 3058 3058 3058 3057 3057 3056 3055 3054 3053 3053
3085 3084 3083 3082 3081 3081 3080 3079 3078 3077 3076 3076 3075 3074 3074 3073 3072 3071 3070 3069 3067 3066 3065 3064 3063 3061 3060 3059 3059 3058 3058 3057 3057 3057 3056 3056 3056 3055 3055 3055 3055 3056 3056 3056 3056 3056 3057 3057 3058 3058 3059 3059 3059 3059 3060 3060 3060 3060 3060 3060 3060 3060 3060 3060 3060 3060 3060 3060 3059 3059 3059 3059 3059 3058 3058 3058 3057 3057 3057 3056 3055 3055 3054 3053 3052